Powrót do katalogu

STARLINK-37453

AktywnyŁącznośćSSO
NORAD 68862·PAYLOAD·🇺🇸 United States

Wystrzelony Apr 26, 2026 z Vandenberg Space Force Base

Loading…

Następne Przeloty (najbliższe 24 godziny)

TLE

ŚwieżeSource: CelesTrak SupGP

Epoka: Sep 15, 2026, 04:25 UTC

1 68862C 26094Z   26258.18451389 -.00057918  00000+0 -17978-2 0  2586
2 68862  97.2833 271.4437 0001643  94.3950  25.0953 15.33470279    12

Śledź STARLINK-37453 w czasie rzeczywistym z AllMySat

Download on the App Store